Tracking 18840 objects as of 18-November-2017
HD Live streaming from Space Station
objects crossing your sky now

FENGYUN 1C DEB

Track FENGYUN 1C DEB now!
10-day predictions


NORAD ID: 31066
Int'l Code: 1999-025BFL
Perigee: 475.3 km
Apogee: 738.9 km
Inclination: 99.0 °
Period: 96.7 minutes
Semi major axis: 6978 km
RCS: 0.002 m2 (small)
Launch date: May 10, 1999
Source: People's Republic of China (PRC)
Launch site: Taiyaun Space Center, China (TSC)

Note: This is SATELLITE DEBRIS
aabbcc
Your satellite tracking list
Your tracking list is empty




NASA's NSSDC Master Catalog

Two Line Element Set (TLE):
1 31066U 99025BFL 17321.12430373 +.00002675 +00000-0 +20840-3 0  9995
2 31066 099.0012 072.8309 0188878 243.5443 114.6286 14.89351065575123
Source of the keplerian elements: AFSPC